Simultaneous Nadir Overpasses (SNOs) Predictions

Prediction of SNOs between AQUA and METOP-A Satellite Orbit:

Table of predicted SNOs for the next 14.0 days since TLE Epoch: 11/28/2015
Index Date (AQUA) Time (AQUA) Lat,Lon (AQUA) SZA (AQUA ) Date (METOP-A) Time (METOP-A) Lat,Lon (METOP-A) SZA (METOP-A ) Distance(km) Time Diff (sec)
1 11/30/2015 07:04:01 73.88, 68.07 95.41 11/30/2015 07:03:11 73.88, 68.17 95.41 3.02 50
2 11/30/2015 07:53:28 -73.95,-124.44 84.52 11/30/2015 07:53:52 -73.94,-124.35 84.53 2.96 24
3 12/03/2015 02:38:17 73.87, 134.53 95.84 12/03/2015 02:37:36 73.86, 134.54 95.83 1.19 41
4 12/03/2015 03:27:44 -73.93, -57.98 84.10 12/03/2015 03:28:17 -73.93, -57.98 84.11 0.98 33
5 12/05/2015 22:12:33 73.88,-159.07 96.23 12/05/2015 22:12:00 73.89,-158.99 96.24 2.34 33
6 12/05/2015 23:02:00 -73.94, 8.44 83.71 12/05/2015 23:02:41 -73.95, 8.50 83.70 2.09 41
7 12/08/2015 17:46:47 73.87, -92.59 96.54 12/08/2015 17:46:24 73.86, -92.65 96.54 2.07 23
8 12/08/2015 18:36:14 -73.92, 74.93 83.40 12/08/2015 18:37:05 -73.93, 74.84 83.40 2.84 51
9 12/11/2015 12:31:27 -73.46, 167.09 83.62 12/11/2015 12:30:18 -73.42, 165.38 83.62 54.31 69
10 12/11/2015 13:21:02 73.87, -26.17 96.82 12/11/2015 13:20:48 73.87, -26.21 96.82 1.26 14
11 12/11/2015 14:10:29 -73.92, 141.36 83.13 12/11/2015 14:11:29 -73.94, 141.28 83.12 3.30 60




NCC Satellite Simultaneous Nadir Overpasses (SNOs) Prediction Service
